Regional Weather Roundup
Issued by NWS San Angelo, TX

Home | Current Version | Previous Version | Text Only | Print | Product List | Glossary On
Versions: 1 2 3 4 5 6 7 8 9 10 11 12 13 14 15 16 17 18 19 20 21 22 23 24 25 26 27 28 29 30 31 32 33 34 35 36 37 38 39 40 41 42 43 44 45 46 47 48 49 50
000
ASUS44 KSJT 270810
RWRSJT
WEST CENTRAL TEXAS REGIONAL WEATHER ROUNDUP
NATIONAL WEATHER SERVICE SAN ANGELO TX
300 AM CDT WED AUG 27 2014

NOTE: "FAIR" INDICATES FEW OR NO CLOUDS BELOW 12,000 FEET WITH NO
SIGNIFICANT WEATHER AND/OR OBSTRUCTIONS TO VISIBILITY.

TXZ049-054-064>066-071>073-076>078-098-099-113-114-127-128-139-140-
154-155-168>170-270900
...LOCATIONS ACROSS WEST CENTRAL TEXAS...

CITY           SKY/WX    TMP DP  RH WIND       PRES   REMARKS
SAN ANGELO     CLEAR     80  64  58 CALM      30.04F
ABILENE        CLEAR     80  66  62 SE8       30.06F
DYESS AFB      NOT AVBL
JUNCTION       PTCLDY    79  67  66 SE5       30.05F
SWEETWATER     CLEAR     80  64  59 SE10      30.11F
BROWNWOOD      MOCLDY    77  66  69 SE5       30.04F
COLEMAN        SUNNY     78  66  66 CALM      30.06S
SONORA         CLEAR     79  64  61 S5        30.10F
OZONA          FAIR      77  61  57 SE6       30.09F
BRADY          CLEAR     75  66  73 SE3       30.05F
$$

TEXAS PANHANDLE/OKLAHOMA PANHANDLE

CITY           SKY/WX    TMP DP  RH WIND       PRES   REMARKS
AMARILLO       MOCLDY    69  65  86 E8        30.17F
BORGER         NOT AVBL
CANADIAN       CLOUDY    73  68  86 N3        30.10S
DALHART        CLOUDY    67  64  90 E7        30.18F
DUMAS          CLOUDY    65  64  96 NE5       30.17F
GUYMON         NOT AVBL
HEREFORD       DRIZZLE   69  66  91 NE5       30.18F
PAMPA          RAIN      67  63  88 NW8       30.18F
PERRYTON       CLOUDY    67  65  93 N8        30.17F
$$

SOUTHERN PANHANDLE/SOUTH PLAINS/ROLLING PLAINS

CITY           SKY/WX    TMP DP  RH WIND       PRES   REMARKS
LUBBOCK        MOCLDY    76  60  57 SE16      30.12S
SNYDER         CLEAR     80  65  59 SE10      30.09F
CHILDRESS      MOCLDY    79  63  57 SE9       30.07F
SEMINOLE       MOSUNNY   75  58  55 NE5       30.14S
$$

PERMIAN BASIN

CITY           SKY/WX    TMP DP  RH WIND       PRES   REMARKS
MIDLAND        PTCLDY    78  57  48 SE6       30.08S
ODESSA         PTCLDY    79  55  43 S5        30.09F
WINK           PTCLDY    76  61  59 N5        30.06F
$$

FAR WEST/SOUTHWEST MOUNTAINS/TRANS PECOS

CITY           SKY/WX    TMP DP  RH WIND       PRES   REMARKS
ALPINE         SUNNY     70  53  54 CALM      30.23F
DRYDEN           N/A     80  55  42 NE6       30.03S
EL PASO        LGT RAIN  69  65  86 SE5       30.16F
FORT STOCKTON  CLEAR     75  55  49 S8        30.08F
GUADALUPE PASS CLOUDY    70  57  63 S6        30.27F
MARFA          CLEAR     61  55  82 N9        30.22F
PECOS          SUNNY     74  61  62 NW3       30.05F
$$

DALLAS/FORT WORTH METROPLEX

CITY           SKY/WX    TMP DP  RH WIND       PRES   REMARKS
DFW AIRPORT    CLEAR     81  69  67 E7        30.02S
FTW MEACHAM    CLEAR     83  69  62 SE7       30.01F
DAL-EXECUTIVE  CLEAR     79  69  71 E5        30.02S
GRAND PRAIRIE  CLEAR     81  68  65 SE3       30.03S
ADDISON        CLEAR     82  69  64 E6        30.05R
MESQUITE       SUNNY     76  69  78 CALM      30.02F
LANCASTER      SUNNY     76  67  73 E3        30.03S
$$

NORTH CENTRAL TEXAS

CITY           SKY/WX    TMP DP  RH WIND       PRES   REMARKS
SHRMAN/DENISON SUNNY     77  69  75 E5        30.05S
GAINESVILLE    CLEAR     75  68  79 E5        30.06F
BRIDGEPORT     SUNNY     77  64  65 CALM      30.05F
DENTON         CLEAR     80  69  69 SE3       30.02S
WAXAHACHIE     SUNNY     76  68  74 CALM      30.03F
GRANBURY       SUNNY     82  68  62 SE3       30.04S
$$

WESTERN NORTH TEXAS

CITY           SKY/WX    TMP DP  RH WIND       PRES   REMARKS
WICHITA FALLS  CLEAR     78  66  66 SE8       30.03F
VERNON         SUNNY     79  64  59 E3        30.06S
BRECKENRIDGE   SUNNY     82  64  55 SE6       30.04S
COMANCHE       CLEAR     75  66  71 S3        30.05F
$$

CENTRAL AND SOUTH CENTRAL TEXAS

CITY           SKY/WX    TMP DP  RH WIND       PRES   REMARKS
AUSTIN/BERGSTM PTCLDY    74  70  87 CALM      30.00F
WACO           CLEAR     78  69  73 SE5       30.01F
HILLSBORO      SUNNY     79  67  68 SE5       30.02S
TEMPLE         CLEAR     77  64  65 SE6       30.01S
KILLEEN-GRAY   PTCLDY    79  70  73 SE7       30.02F
FORT HOOD      CLEAR     80  69  69 E3        30.02F
GEORGETOWN     CLEAR     79  72  78 CALM      30.02F
LAGO VISTA     FAIR      78  71  78 SE5       30.04S
SAN MARCOS     CLEAR     75  66  73 CALM      30.02F
NEW BRAUNFELS  CLEAR     76  71  85 CALM      29.99F
RANDOLPH AFB   CLEAR     77  70  80 E3        30.00F
SAN ANTONIO    PTCLDY    79  71  76 SE6       30.01F
STINSON        CLEAR     80  71  74 E3        29.98F
PLEASANTON     NOT AVBL
LA GRANGE      CLEAR     77  74  91 CALM      29.97F
GIDDINGS       SUNNY     75  71  86 CALM      30.03F
$$

EAST TEXAS

CITY           SKY/WX    TMP DP  RH WIND       PRES   REMARKS
PARIS          CLEAR     73  64  73 E6        30.05S
CLARKSVILLE    SUNNY     76  70  81 CALM      30.05R
TYLER          CLEAR     78  70  76 E5        30.02F
LONGVIEW       PTCLDY    74  70  87 CALM      30.02S
PALESTINE      SUNNY     77  71  81 E3        30.03S
NACOGDOCHES    CLEAR     68  66  94 CALM      30.02F
$$

TEXAS HILL COUNTRY AND EDWARDS PLATEAU

CITY           SKY/WX    TMP DP  RH WIND       PRES   REMARKS
LLANO          SUNNY     75  68  78 CALM      30.06F
HORSESHOE BAY  FAIR      77  69  77 S3        30.02F
KERRVILLE      PTCLDY    74  69  85 CALM      30.05F
FREDERICKSBRG  CLEAR     76  68  75 SE3       30.05F
ROCKSPRINGS    SUNNY     77  66  69 SE3       30.09F
HONDO          CLEAR     80  70  71 SE8       30.02F
UVALDE         SUNNY     82  69  64 E7        30.00F
DEL RIO        CLEAR     86  67  52 SE13      29.97F
$$

SOUTHEAST TEXAS

CITY           SKY/WX    TMP DP  RH WIND       PRES   REMARKS
COLLEGE STN    CLEAR     78  71  79 CALM      29.99F
CALDWELL       SUNNY     75  72  88 CALM      30.02F
CROCKETT       SUNNY     77  73  88 NE3       30.04S
BRENHAM        CLEAR     77  73  87 CALM      29.99F
HUNTSVILLE     CLEAR     76  71  85 CALM      30.00F
CONROE         CLEAR     71  69  93 CALM      29.99F
HOUSTON BUSH   MOCLDY    77  72  83 N3        29.97F
HOUSTON HOBBY  MOCLDY    80  73  79 NE5       29.95F
PERLAND        PTCLDY    80  73  79 NE8       29.96F
WHARTON        SUNNY     74  72  95 CALM      29.97F
$$

THE UPPER TEXAS COAST

CITY           SKY/WX    TMP DP  RH WIND       PRES   REMARKS
ORANGE         MOSUNNY   76  76 100 CALM      29.98F
PORT ARTHUR    PTCLDY    80  74  81 NE6       29.95F
GALVESTON      MOCLDY    84  74  71 NE10      29.94F
ANGLETON       CLEAR     75  73  93 N6        29.94F
BAY CITY       SUNNY     77  77 100 N5        29.95S
$$

TEXAS COASTAL BEND, RIO GRANDE PLAINS DEEP SOUTH TEXAS

CITY           SKY/WX    TMP DP  RH WIND       PRES   REMARKS
VICTORIA       CLEAR     76  74  93 N6        29.96F
BEEVILLE       FAIR      77  73  86 CALM      29.96F
ROCKPORT       PTCLDY    83  74  74 E8        29.94F
PORT ARANSAS   SUNNY     82  76  82 NE3       29.93F
PORT LAVACA    SUNNY     76  74  95 N5        29.95S FOG
CORPUS CHRISTI PTCLDY    82  75  79 E5        29.94F
KINGSVILLE NAS CLEAR     78  75  90 N3        29.94F
COTULLA        PTCLDY    82  69  64 SE8       29.97F
LAREDO         CLEAR     83  71  66 SE6       29.99S
BROWNSVILLE    CLEAR     80  76  87 NW3       29.92F
PORT ISABEL    CLEAR     81  74  79 NW5       29.92F
HEBBRONVILLE   SUNNY     78  73  83 SE3       29.98F
MCALLEN        CLEAR     82  75  79 E3        29.94S
WESLACO        CLEAR     78  72  82 CALM      29.93S
FALFURRIAS     SUNNY     73  68  83 CALM      29.94F
EDINBURG       SUNNY     81  72  74 CALM      29.94F
$$



USA.gov is the U.S. government's official web portal to all federal, state and local government web resources and services.